EN

Hourly Weather Kyubyainde

Today, 25 July, Sunday

Time Temperature Precipitation Wind Pressure Humidity
00:00 +16°C° 0 mm 3 mps 744 mmHg 72%
01:00 +14°C° 0 mm 3 mps 744 mmHg 73%
02:00 +14°C° 0 mm 3 mps 744 mmHg 75%
03:00 +14°C° 0 mm 3 mps 744 mmHg 74%
04:00 +14°C° 0 mm 3 mps 745 mmHg 73%
05:00 +14°C° 0 mm 3 mps 745 mmHg 72%
06:00 +17°C° 0 mm 4 mps 745 mmHg 63%
07:00 +19°C° 0 mm 4 mps 745 mmHg 55%
08:00 +20°C° 0 mm 5 mps 745 mmHg 47%
09:00 +21°C° 0 mm 5 mps 745 mmHg 41%
10:00 +23°C° 0 mm 5 mps 745 mmHg 35%
11:00 +25°C° 0 mm 5 mps 745 mmHg 28%
12:00 +25°C° 0 mm 4 mps 745 mmHg 28%
13:00 +26°C° 0 mm 4 mps 745 mmHg 28%
14:00 +27°C° 0 mm 4 mps 744 mmHg 29%
15:00 +27°C° 0 mm 4 mps 744 mmHg 30%
16:00 +28°C° 0 mm 3 mps 744 mmHg 32%
17:00 +28°C° 0 mm 3 mps 744 mmHg 33%
18:00 +27°C° 0 mm 2 mps 744 mmHg 41%
19:00 +25°C° 0 mm 1 mps 744 mmHg 48%
20:00 +24°C° 0 mm 1 mps 744 mmHg 56%
21:00 +23°C° 0 mm 1 mps 744 mmHg 58%
22:00 +21°C° 0 mm 2 mps 744 mmHg 59%
23:00 +20°C° 0 mm 2 mps 743 mmHg 61%

Tomorrow, 26 July, Monday

Time Temperature Precipitation Wind Pressure Humidity
00:00 +20°C° 0 mm 3 mps 743 mmHg 61%
01:00 +20°C° 0 mm 3 mps 743 mmHg 61%
02:00 +20°C° 0 mm 3 mps 743 mmHg 61%
03:00 +21°C° 0 mm 3 mps 743 mmHg 64%
04:00 +21°C° 0 mm 3 mps 743 mmHg 67%
05:00 +21°C° 0 mm 2 mps 743 mmHg 70%
06:00 +24°C° 0 mm 3 mps 743 mmHg 63%
07:00 +26°C° 0 mm 3 mps 743 mmHg 56%
08:00 +28°C° 0 mm 3 mps 743 mmHg 49%
09:00 +30°C° 0 mm 3 mps 743 mmHg 44%
10:00 +32°C° 0 mm 4 mps 743 mmHg 38%
11:00 +34°C° 0 mm 4 mps 742 mmHg 33%
12:00 +34°C° 0 mm 4 mps 742 mmHg 34%
13:00 +33°C° 0 mm 4 mps 742 mmHg 35%
14:00 +33°C° 0 mm 3 mps 742 mmHg 35%
15:00 +34°C° 0 mm 3 mps 742 mmHg 34%
16:00 +34°C° 0 mm 3 mps 742 mmHg 32%
17:00 +35°C° 0 mm 3 mps 741 mmHg 30%
18:00 +33°C° 0 mm 3 mps 742 mmHg 37%
19:00 +30°C° 0 mm 2 mps 742 mmHg 44%
20:00 +28°C° 0 mm 2 mps 742 mmHg 51%
21:00 +27°C° 0 mm 2 mps 742 mmHg 53%
22:00 +26°C° 0 mm 2 mps 742 mmHg 56%
23:00 +25°C° 0 mm 2 mps 742 mmHg 58%

Day after tomorrow, 27 July, Tuesday

Time Temperature Precipitation Wind Pressure Humidity
00:00 +23°C° 0 mm 2 mps 742 mmHg 65%
01:00 +21°C° 0 mm 2 mps 743 mmHg 72%
02:00 +20°C° 0 mm 2 mps 743 mmHg 79%
03:00 +20°C° 0 mm 2 mps 743 mmHg 79%
04:00 +21°C° 0 mm 1 mps 743 mmHg 79%
05:00 +22°C° 0 mm 1 mps 743 mmHg 79%
06:00 +23°C° 0 mm 1 mps 744 mmHg 71%
07:00 +25°C° 0 mm 1 mps 744 mmHg 63%
08:00 +26°C° 0 mm 1 mps 744 mmHg 55%
09:00 +28°C° 0 mm 1 mps 744 mmHg 52%
10:00 +29°C° 0 mm 1 mps 744 mmHg 48%
11:00 +30°C° 0 mm 1 mps 743 mmHg 44%
12:00 +31°C° 0 mm 1 mps 743 mmHg 42%
13:00 +31°C° 0 mm 1 mps 743 mmHg 41%
14:00 +32°C° 0 mm 1 mps 743 mmHg 40%
15:00 +31°C° 0 mm 1 mps 743 mmHg 43%
16:00 +30°C° 0 mm 2 mps 742 mmHg 46%
17:00 +29°C° 0 mm 2 mps 742 mmHg 49%
18:00 +28°C° 0 mm 2 mps 742 mmHg 52%
19:00 +27°C° 0 mm 3 mps 742 mmHg 54%
20:00 +26°C° 0 mm 3 mps 742 mmHg 57%
21:00 +24°C° 0 mm 3 mps 742 mmHg 60%
22:00 +21°C° 0 mm 3 mps 743 mmHg 63%
23:00 +19°C° 0 mm 2 mps 743 mmHg 65%

28 July, Wednesday

Time Temperature Precipitation Wind Pressure Humidity
00:00 +18°C° 0 mm 2 mps 743 mmHg 65%
01:00 +17°C° 0 mm 2 mps 743 mmHg 64%
02:00 +16°C° 0 mm 2 mps 744 mmHg 64%
03:00 +16°C° 0 mm 2 mps 744 mmHg 63%
04:00 +16°C° 0 mm 2 mps 744 mmHg 62%
05:00 +16°C° 0 mm 2 mps 744 mmHg 61%
06:00 +18°C° 0 mm 2 mps 744 mmHg 56%
07:00 +19°C° 0 mm 3 mps 744 mmHg 50%
08:00 +21°C° 0 mm 3 mps 744 mmHg 45%
09:00 +22°C° 0 mm 3 mps 744 mmHg 41%
10:00 +24°C° 0 mm 3 mps 743 mmHg 37%
11:00 +26°C° 0 mm 3 mps 743 mmHg 33%
12:00 +26°C° 0 mm 3 mps 743 mmHg 31%
13:00 +27°C° 0 mm 3 mps 743 mmHg 29%
14:00 +28°C° 0 mm 3 mps 743 mmHg 27%
15:00 +28°C° 0 mm 3 mps 743 mmHg 28%
16:00 +28°C° 0 mm 3 mps 743 mmHg 29%
17:00 +28°C° 0 mm 3 mps 743 mmHg 29%
18:00 +26°C° 0 mm 3 mps 743 mmHg 36%
19:00 +24°C° 0 mm 3 mps 743 mmHg 42%
20:00 +21°C° 0 mm 3 mps 743 mmHg 49%
21:00 +20°C° 0 mm 3 mps 743 mmHg 51%
22:00 +18°C° 0 mm 2 mps 743 mmHg 53%
23:00 +17°C° 0 mm 2 mps 743 mmHg 55%

29 July, Thursday

Time Temperature Precipitation Wind Pressure Humidity
00:00 +16°C° 0 mm 2 mps 744 mmHg 55%
01:00 +15°C° 0 mm 2 mps 744 mmHg 55%
02:00 +14°C° 0 mm 2 mps 744 mmHg 55%
03:00 +14°C° 0 mm 2 mps 744 mmHg 54%
04:00 +14°C° 0 mm 2 mps 744 mmHg 53%
05:00 +15°C° 0 mm 2 mps 744 mmHg 52%
06:00 +17°C° 0 mm 2 mps 745 mmHg 46%
07:00 +19°C° 0 mm 3 mps 745 mmHg 41%
08:00 +21°C° 0 mm 3 mps 745 mmHg 35%
09:00 +22°C° 0 mm 3 mps 745 mmHg 32%
10:00 +25°C° 0 mm 3 mps 745 mmHg 29%
11:00 +26°C° 0 mm 4 mps 745 mmHg 25%
12:00 +27°C° 0 mm 4 mps 744 mmHg 24%
13:00 +27°C° 0 mm 4 mps 744 mmHg 22%
14:00 +28°C° 0 mm 4 mps 744 mmHg 20%
15:00 +27°C° 0 mm 4 mps 744 mmHg 21%
16:00 +27°C° 0 mm 4 mps 744 mmHg 22%
17:00 +27°C° 0 mm 4 mps 744 mmHg 23%
18:00 +25°C° 0 mm 3 mps 744 mmHg 30%
19:00 +23°C° 0 mm 2 mps 745 mmHg 38%
20:00 +20°C° 0 mm 2 mps 745 mmHg 45%
21:00 +20°C° 0 mm 1 mps 745 mmHg 46%
22:00 +18°C° 0 mm 1 mps 745 mmHg 47%
23:00 +16°C° 0 mm 1 mps 745 mmHg 47%

30 July, Friday

Time Temperature Precipitation Wind Pressure Humidity
00:00 +15°C° 0 mm 1 mps 745 mmHg 49%
01:00 +15°C° 0 mm 1 mps 745 mmHg 51%
02:00 +14°C° 0 mm 1 mps 745 mmHg 53%
03:00 +14°C° 0 mm 1 mps 745 mmHg 54%
04:00 +15°C° 0 mm 1 mps 745 mmHg 56%
05:00 +15°C° 0 mm 2 mps 745 mmHg 58%
06:00 +17°C° 0 mm 2 mps 745 mmHg 52%
07:00 +20°C° 0 mm 2 mps 745 mmHg 46%
08:00 +23°C° 0 mm 2 mps 744 mmHg 40%
09:00 +24°C° 0 mm 2 mps 744 mmHg 36%
10:00 +25°C° 0 mm 2 mps 744 mmHg 33%
11:00 +27°C° 0 mm 3 mps 744 mmHg 30%
12:00 +27°C° 0 mm 3 mps 743 mmHg 28%
13:00 +28°C° 0 mm 3 mps 743 mmHg 26%
14:00 +28°C° 0 mm 3 mps 743 mmHg 25%
15:00 +28°C° 0 mm 3 mps 743 mmHg 25%
16:00 +28°C° 0 mm 3 mps 743 mmHg 25%
17:00 +28°C° 0 mm 3 mps 742 mmHg 25%
18:00 +26°C° 0 mm 2 mps 742 mmHg 32%
19:00 +24°C° 0 mm 2 mps 742 mmHg 39%
20:00 +22°C° 0 mm 1 mps 742 mmHg 46%
21:00 +21°C° 0 mm 1 mps 742 mmHg 49%
22:00 +19°C° 0 mm 1 mps 742 mmHg 52%
23:00 +16°C° 0 mm 1 mps 742 mmHg 55%
Show more